Retour au catalogue

SENTINEL 1A

ActifScienceSSO
NORAD 39634·PAYLOAD·🇪🇺 EU

Lancé Apr 3, 2014 depuis Guiana Space Centre

Loading…

Prochains Passages (prochaines 24 heures)

TLE

FraisSource: Space-Track

Époque: Sep 14, 2026, 13:34 UTC

1 39634U 14016A   26257.56545641 -.00000036  00000-0  21334-5 0  9993
2 39634  98.1587 263.7004 0001408  85.0608 275.0753 14.59804504663056

Suivez SENTINEL 1A en temps réel avec AllMySat

Download on the App Store